TimeHST,TemperatureF,Dew PointF,Humidity,Sea Level PressureIn,VisibilityMPH,Wind Direction,Wind SpeedMPH,Gust SpeedMPH,PrecipitationIn,Events,Conditions,WindDirDegrees,DateUTC
12:53 AM,73.0,69.1,87,30.03,10.0,West,3.5,-,N/A,,Scattered Clouds,280,2013-09-04 10:53:00
1:53 AM,73.0,68.0,84,30.02,10.0,WNW,4.6,-,N/A,,Scattered Clouds,300,2013-09-04 11:53:00
2:12 AM,73.4,68.0,83,30.02,10.0,West,5.8,-,N/A,,Mostly Cloudy,280,2013-09-04 12:12:00
2:53 AM,73.0,66.9,81,30.01,10.0,WSW,4.6,-,N/A,,Mostly Cloudy,240,2013-09-04 12:53:00
3:26 AM,73.4,66.2,78,30.01,10.0,West,4.6,-,N/A,,Scattered Clouds,280,2013-09-04 13:26:00
3:53 AM,72.0,66.9,84,30.00,10.0,WNW,6.9,-,N/A,,Partly Cloudy,290,2013-09-04 13:53:00
4:53 AM,72.0,66.9,84,30.00,10.0,WNW,6.9,-,N/A,,Clear,290,2013-09-04 14:53:00
5:53 AM,72.0,66.9,84,30.01,10.0,WNW,5.8,-,N/A,,Clear,300,2013-09-04 15:53:00
6:40 AM,71.6,66.2,83,30.02,10.0,WNW,4.6,-,0.00,,Partly Cloudy,300,2013-09-04 16:40:00
6:53 AM,71.1,66.9,87,30.02,10.0,WNW,4.6,-,0.00,,Clear,290,2013-09-04 16:53:00
7:53 AM,75.0,68.0,79,30.03,10.0,West,4.6,-,N/A,,Partly Cloudy,280,2013-09-04 17:53:00
8:53 AM,78.1,69.1,74,30.04,10.0,North,5.8,-,0.00,Rain,Light Rain,10,2013-09-04 18:53:00
9:53 AM,82.9,69.1,63,30.05,10.0,NE,8.1,-,0.00,,Clear,40,2013-09-04 19:53:00
10:53 AM,84.0,69.1,61,30.04,10.0,NE,9.2,-,N/A,,Clear,40,2013-09-04 20:53:00
11:53 AM,84.0,68.0,58,30.03,10.0,ENE,10.4,-,N/A,,Clear,70,2013-09-04 21:53:00
12:53 PM,84.9,69.1,59,30.02,10.0,ENE,11.5,-,N/A,,Clear,60,2013-09-04 22:53:00
1:53 PM,84.0,69.1,61,30.00,10.0,NE,12.7,-,N/A,,Clear,50,2013-09-04 23:53:00
2:53 PM,84.9,69.1,59,29.99,10.0,NE,11.5,-,N/A,,Clear,50,2013-09-05 00:53:00
3:53 PM,84.0,70.0,63,29.98,10.0,NE,11.5,-,N/A,,Clear,50,2013-09-05 01:53:00
4:53 PM,82.9,69.1,63,29.98,10.0,NE,10.4,-,N/A,,Partly Cloudy,40,2013-09-05 02:53:00
5:53 PM,81.0,68.0,65,29.99,10.0,NE,10.4,-,N/A,,Partly Cloudy,50,2013-09-05 03:53:00
6:53 PM,79.0,68.0,69,30.00,10.0,NE,9.2,-,N/A,,Scattered Clouds,40,2013-09-05 04:53:00
7:53 PM,78.1,68.0,71,30.01,10.0,NE,9.2,-,N/A,,Scattered Clouds,40,2013-09-05 05:53:00
8:53 PM,78.1,69.1,74,30.03,10.0,NE,8.1,-,N/A,,Partly Cloudy,50,2013-09-05 06:53:00
9:53 PM,78.1,69.1,74,30.04,10.0,ENE,6.9,-,N/A,,Partly Cloudy,60,2013-09-05 07:53:00
10:53 PM,75.9,68.0,76,30.04,10.0,Calm,Calm,-,N/A,,Partly Cloudy,0,2013-09-05 08:53:00
11:22 PM,73.4,68.0,83,30.04,10.0,WNW,4.6,-,N/A,,Mostly Cloudy,290,2013-09-05 09:22:00
11:35 PM,73.4,68.0,83,30.04,10.0,NW,4.6,-,N/A,,Scattered Clouds,310,2013-09-05 09:35:00
11:53 PM,75.0,68.0,79,30.03,10.0,NW,3.5,-,N/A,,Partly Cloudy,320,2013-09-05 09:53:00